Location: Drummondville
(45.8830°N, 72.4830°W)
Time: 22:48:09
(UTC-05:00)

N. Korean satellite - Pass Details

Date: 19 November 2017
Orbit: 460 x 514 km, 97.2° (Epoch: 21 November)

Event Time Altitude Azimuth Distance (km) Brightness Sun altitude
Rises 06:11:08 0° 20° (NNE) 2,611 10.3 -8.0°
Reaches altitude 10° 06:13:20 10° 29° (NNE) 1,729 9.5 -7.6°
Maximum altitude 06:16:48 36° 97° (E) 827 8.5 -7.0°
Drops below altitude 10° 06:20:16 10° 165° (SSE) 1,732 9.9 -6.5°
Sets 06:22:29 0° 174° (S) 2,616 10.7 -6.1°
